Home   Weather   Tours   Past weeks

Flag for France Past Weather in Tours, Centre-Val de Loire, France — Yesterday and Last 2 Weeks

Now
41 °F

Clear.


Feels Like: 37 °F
Forecast: 34 / 51 °F
Wind: 6 mph from West

Location: Tours Airport

Current Time: Feb 24, 2017 at 4:50:33 am

Latest Report: Feb 24, 2017 at 4:00 am


Visibility: 10 mi

Pressure: 29.98 "Hg

Humidity: 81%

Dew Point: 36 °F

Location of ToursLocation

Past Weather in Tours — Graph

°F

Tours Temperature Yesterday

Maximum temperature yesterday: 52 °F (at 12:30 pm)
Minimum temperature yesterday: 45 °F (at 10:30 pm)
Average temperature yesterday: 49 °F

High & Low Weather Summary for the Past Weeks

 TemperatureHumidityPressure
High61 °F (Feb 15, 2:30 pm)100% (Feb 9, 4:00 am)30.48 "Hg (Feb 9, 4:00 am)
Low27 °F (Feb 11, 6:00 am)48% (Feb 13, 3:00 pm)29.77 "Hg (Feb 23, 2:30 pm)
Average45 °F84%30.18 "Hg
* Reported Feb 9 3:00 am — Feb 24 3:30 am, Tours, Weather by CustomWeather, © 2017

Note: Actual official high and low records may vary slightly from our data, if they occured in-between our weather recording intervals... More about our weather records

Advertising

Tours Weather History for the Previous 24 Hours

Scroll right to see more
 ConditionsComfort  
Time TempWeatherWind HumidityBarometerVisibility
3:30 am
Fri, Feb 24
41 °FClear.6 mph81%29.98 "Hg10 mi
3:00 am43 °FClear.6 mph76%29.98 "Hg10 mi
2:30 am43 °FClear.8 mph76%29.98 "Hg10 mi
2:00 am43 °FClear.7 mph76%29.95 "Hg10 mi
1:30 am43 °FClear.7 mph76%29.95 "Hg10 mi
1:00 am43 °FClear.8 mph76%29.95 "Hg10 mi
12:30 am45 °FClear.9 mph71%29.92 "Hg10 mi
12:00 am45 °FPassing clouds.10 mph71%29.92 "HgN/A
11:30 pm
Thu, Feb 23
45 °FClear.7 mph71%29.92 "Hg10 mi
11:00 pm45 °FClear.7 mph71%29.89 "Hg10 mi
10:30 pm45 °FClear.7 mph76%29.89 "Hg10 mi
10:00 pm46 °FClear.8 mph66%29.89 "Hg10 mi
9:30 pm46 °FClear.8 mph66%29.89 "Hg10 mi
9:00 pm48 °FClear.9 mph66%29.86 "Hg10 mi
8:30 pm48 °FPassing clouds.7 mph71%29.86 "HgN/A
8:00 pm50 °FClear.9 mph67%29.83 "Hg10 mi
7:30 pm50 °FPassing clouds.8 mph82%29.83 "HgN/A
7:00 pm52 °FMostly cloudy.9 mph82%29.80 "HgN/A
6:30 pm52 °FBroken clouds.8 mph88%29.80 "HgN/A
6:00 pm52 °FPartly sunny.10 mph88%29.77 "HgN/A
5:30 pm52 °FPartly sunny.15 mph88%29.77 "HgN/A
5:00 pm52 °FDrizzle. Mostly cloudy.15 mph94%29.77 "HgN/A
4:30 pm52 °FDrizzle. Overcast.20 mph88%29.77 "Hg4 mi
4:00 pm52 °FDrizzle. Overcast.20 mph88%29.77 "HgN/A
3:30 pm52 °FOvercast.20 mph82%29.77 "HgN/A
3:00 pm52 °FMostly cloudy.18 mph88%29.77 "HgN/A
2:30 pm52 °FDrizzle. Mostly cloudy.20 mph82%29.77 "HgN/A
2:00 pm52 °FOvercast.21 mph77%29.80 "HgN/A
1:30 pm52 °FOvercast.20 mph77%29.80 "HgN/A
1:00 pm52 °FOvercast.22 mph77%29.80 "HgN/A
12:30 pm52 °FOvercast.22 mph72%29.83 "HgN/A
12:00 pm50 °FOvercast.21 mph82%29.83 "HgN/A
11:30 am50 °FMostly cloudy.20 mph82%29.83 "HgN/A
11:00 am50 °FOvercast.18 mph82%29.83 "HgN/A
10:30 am48 °FOvercast.15 mph82%29.83 "HgN/A
10:00 am48 °FOvercast.15 mph82%29.86 "HgN/A
9:30 am48 °FOvercast.15 mph76%29.86 "HgN/A
9:00 am46 °FOvercast.14 mph82%29.86 "HgN/A
8:30 am46 °FOvercast.12 mph87%29.86 "HgN/A
8:00 am46 °FOvercast.14 mph82%29.86 "HgN/A
7:30 am46 °FOvercast.14 mph87%29.86 "HgN/A
7:00 am48 °FOvercast.14 mph82%29.86 "HgN/A
6:30 am48 °FOvercast.14 mph82%29.89 "HgN/A
6:00 am48 °FOvercast.13 mph82%29.89 "HgN/A
5:30 am48 °FOvercast.10 mph82%29.89 "HgN/A
5:00 am48 °FOvercast.12 mph82%29.92 "HgN/A
4:30 am48 °FOvercast.10 mph82%29.92 "HgN/A
4:00 am48 °FOvercast.8 mph82%29.95 "HgN/A
Weather by CustomWeather, © 2017

See weather overviewHow to use our weather pages